KB1QVF Weather Reports


time (UTC)temp
C
wind
direction
speed
KPH
gust
KPH
rain 1hr
cm
rain 24hr
cm
rain mn
cm
humidity
%
barometer
mb
20260506221906 13 342 9.7 14.5 0.13 0.25 0.25 96 1009.0
20260506221402 13 150 14.5 20.9 0.00 0.23 0.23 96 1008.8
20260506220900 13 165 22.5 29.0 0.00 0.23 0.23 96 1008.8
20260506220355 13 24 4.8 12.9 0.00 0.23 0.23 96 1008.5
20260506215852 13 99 9.7 17.7 0.00 0.23 0.23 96 1009.0
20260506215348 13 335 6.4 11.3 0.18 0.23 0.23 96 1009.2
20260506214844 13 134 6.4 17.7 0.00 0.20 0.20 96 1009.0
20260506214341 13 122 16.1 24.1 0.13 0.20 0.20 95 1009.2
20260506213839 13 352 6.4 27.4 0.13 0.20 0.20 95 1009.0
20260506213336 13 95 4.8 9.7 0.00 0.18 0.18 95 1009.4
20260506212833 13 44 6.4 17.7 0.00 0.18 0.18 95 1009.3
20260506212329 13 216 8.0 11.3 0.18 0.18 0.18 95 1009.5
20260506211824 13 178 9.7 16.1 0.00 0.15 0.15 95 1009.3
20260506211320 13 178 12.9 25.7 0.00 0.15 0.15 94 1009.6
20260506210818 13 91 3.2 24.1 0.00 0.15 0.15 94 1009.7
20260506210315 13 140 3.2 17.7 0.00 0.15 0.15 94 1009.6
20260506205812 13 170 8.0 17.7 0.00 0.15 0.15 94 1009.5
20260506205308 14 178 8.0 11.3 0.00 0.15 0.15 94 1009.9
20260506204804 14 175 14.5 20.9 0.00 0.15 0.15 94 1009.7
20260506204302 14 164 14.5 25.7 0.00 0.15 0.15 94 1009.9
20260506203800 14 256 6.4 6.4 0.00 0.15 0.15 94 1009.9
20260506203257 14 173 8.0 22.5 0.00 0.15 0.15 94 1009.6
20260506202754 13 116 6.4 33.8 0.00 0.15 0.15 94 1009.7
20260506202251 14 228 6.4 24.1 0.00 0.15 0.15 94 1010.0
20260506201747 14 154 9.7 22.5 0.00 0.15 0.15 94 1009.7
20260506201244 14 177 9.7 14.5 0.00 0.15 0.15 94 1009.8
20260506200741 14 167 20.9 24.1 0.00 0.15 0.15 94 1009.8
20260506200237 14 77 8.0 25.7 0.00 0.15 0.15 94 1010.1
20260506195733 14 124 6.4 22.5 0.00 0.15 0.15 94 1010.1
20260506195230 14 354 3.2 25.7 0.00 0.15 0.15 93 1010.0
20260506194728 14 307 4.8 16.1 0.00 0.15 0.15 93 1010.1
20260506194224 14 116 14.5 25.7 0.00 0.15 0.15 93 1010.2
20260506193722 14 169 14.5 17.7 0.13 0.15 0.15 93 1010.0
20260506193218 14 17 1.6 24.1 0.30 0.15 0.15 93 1010.1
20260506192716 14 107 16.1 22.5 0.18 0.13 0.13 92 1010.2
20260506192212 14 126 6.4 16.1 0.30 0.10 0.10 91 1010.3
20260506191709 14 191 6.4 20.9 0.18 0.08 0.08 90 1010.2
20260506191205 15 162 3.2 22.5 0.13 0.05 0.05 89 1010.4
20260506190703 15 167 12.9 17.7 0.13 0.05 0.05 89 1010.2
20260506190159 15 140 6.4 11.3 0.00 0.03 0.03 88 1010.2
20260506185656 15 222 12.9 22.5 0.18 0.03 0.03 87 1010.3
20260506185152 15 219 12.9 17.7 0.18 0.03 0.03 87 1010.4
20260506184650 15 348 9.7 29.0 0.00 0.00 0.00 85 1010.7
20260506184147 15 188 12.9 29.0 0.00 0.00 0.00 83 1010.7
20260506183643 15 237 14.5 35.4 0.00 0.00 0.00 81 1010.7
20260506183139 16 191 17.7 29.0 0.00 0.00 0.00 79 1010.8
20260506182637 16 212 17.7 30.6 0.00 0.00 0.00 76 1010.7
20260506182134 16 164 11.3 29.0 0.00 0.00 0.00 76 1010.8
20260506181632 16 175 12.9 20.9 0.00 0.00 0.00 74 1010.8
20260506181129 17 359 4.8 12.9 0.00 0.00 0.00 74 1011.0
20260506180625 17 104 9.7 30.6 0.00 0.00 0.00 73 1011.0
20260506180122 17 72 6.4 20.9 0.00 0.00 0.00 73 1011.2
20260506175618 17 250 11.3 29.0 0.00 0.00 0.00 73 1010.9
20260506175114 17 253 8.0 24.1 0.00 0.00 0.00 72 1011.0
20260506174613 17 202 8.0 12.9 0.00 0.00 0.00 71 1011.2
20260506174109 17 213 8.0 29.0 0.00 0.00 0.00 71 1011.1
20260506173607 17 149 9.7 20.9 0.00 0.00 0.00 70 1011.1
20260506173103 18 170 6.4 17.7 0.00 0.00 0.00 69 1011.0
20260506172601 18 242 17.7 29.0 0.00 0.00 0.00 69 1011.4
20260506172057 18 187 19.3 33.8 0.00 0.00 0.00 67 1011.6
20260506171555 18 135 19.3 25.7 0.00 0.00 0.00 68 1011.4
20260506171052 19 139 20.9 30.6 0.00 0.00 0.00 66 1011.7
20260506170550 19 357 11.3 27.4 0.00 0.00 0.00 65 1011.1
20260506170047 19 193 17.7 27.4 0.00 0.00 0.00 65 1011.5
20260506165545 18 15 3.2 12.9 0.00 0.00 0.00 68 1011.5
20260506165041 18 165 29.0 37.0 0.00 0.00 0.00 67 1011.4
20260506164538 18 164 6.4 14.5 0.00 0.00 0.00 67 1011.4
20260506164036 18 172 11.3 30.6 0.00 0.00 0.00 67 1011.5
20260506163532 18 188 4.8 33.8 0.00 0.00 0.00 68 1011.5
20260506163027 18 145 6.4 16.1 0.00 0.00 0.00 68 1011.7
20260506162524 18 171 6.4 16.1 0.00 0.00 0.00 67 1011.7
20260506162021 18 108 4.8 25.7 0.00 0.00 0.00 67 1011.8
20260506161518 19 199 29.0 38.6 0.00 0.00 0.00 65 1011.9
20260506161010 19 140 11.3 25.7 0.00 0.00 0.00 65 1012.0
20260506160508 20 189 14.5 22.5 0.00 0.00 0.00 64 1012.1
20260506160005 19 16 3.2 16.1 0.00 0.00 0.00 64 1011.8
20260506155503 20 116 11.3 20.9 0.00 0.00 0.00 64 1012.0
20260506153634 20 152 16.1 25.7 0.00 0.00 0.00 64 1012.3
20260506153131 20 148 8.0 17.7 0.00 0.00 0.00 64 1012.2
20260506152628 20 148 14.5 17.7 0.00 0.00 0.00 64 1012.2
20260506152126 19 189 11.3 33.8 0.00 0.00 0.00 64 1012.4
20260506151624 20 150 4.8 22.5 0.00 0.00 0.00 64 1012.4
20260506151121 20 118 9.7 24.1 0.00 0.00 0.00 64 1012.6
20260506150618 20 169 8.0 16.1 0.00 0.00 0.00 64 1012.3
20260506150115 20 135 6.4 12.9 0.00 0.00 0.00 63 1012.4
20260506145612 20 142 16.1 17.7 0.00 0.00 0.00 65 1012.2
20260506145108 19 204 6.4 20.9 0.00 0.00 0.00 66 1012.4
20260506144605 18 147 14.5 17.7 0.00 0.00 0.00 67 1012.4
20260506144102 18 194 6.4 16.1 0.00 0.00 0.00 68 1012.8
20260506143600 18 311 6.4 12.9 0.00 0.00 0.00 68 1012.6
20260506143058 18 169 14.5 25.7 0.00 0.00 0.00 68 1012.6
20260506142555 18 172 8.0 12.9 0.00 0.00 0.00 69 1012.5
20260506142054 18 169 9.7 16.1 0.00 0.00 0.00 69 1012.5
20260506141551 18 152 16.1 20.9 0.00 0.00 0.00 69 1012.4
20260506141049 18 177 8.0 24.1 0.00 0.00 0.00 69 1012.4
20260506140546 18 240 14.5 22.5 0.00 0.00 0.00 70 1012.5
20260506140044 18 97 9.7 24.1 0.00 0.00 0.00 69 1012.5
20260506135540 17 190 9.7 16.1 0.00 0.00 0.00 69 1012.8
20260506135036 18 225 11.3 27.4 0.00 0.00 0.00 69 1012.4
20260506134533 18 135 14.5 20.9 0.00 0.00 0.00 69 1012.5
20260506134029 18 151 9.7 16.1 0.00 0.00 0.00 68 1012.4
20260506133526 18 311 9.7 12.9 0.00 0.00 0.00 70 1012.5
20260506133023 17 106 8.0 35.4 0.00 0.00 0.00 70 1012.3
20260506132520 17 209 11.3 16.1 0.00 0.00 0.00 71 1012.9
20260506132018 17 161 24.1 35.4 0.00 0.00 0.00 71 1012.8
20260506131515 17 227 11.3 25.7 0.00 0.00 0.00 71 1013.0
20260506131011 17 209 11.3 25.7 0.00 0.00 0.00 72 1012.9
20260506130508 17 128 3.2 14.5 0.00 0.00 0.00 74 1013.0
20260506130006 17 168 9.7 14.5 0.00 0.00 0.00 74 1013.2
20260506125504 16 214 8.0 22.5 0.00 0.00 0.00 76 1012.9
20260506125001 16 156 4.8 16.1 0.00 0.00 0.00 77 1012.9
20260506124459 16 163 4.8 29.0 0.00 0.00 0.00 77 1013.1
20260506123957 16 192 19.3 22.5 0.00 0.00 0.00 77 1013.2
20260506123454 16 33 3.2 20.9 0.00 0.00 0.00 79 1013.1
20260506122952 16 138 6.4 14.5 0.00 0.00 0.00 79 1013.0
20260506122448 16 154 17.7 25.7 0.00 0.00 0.00 79 1013.0
20260506121947 15 266 17.7 25.7 0.00 0.00 0.00 80 1012.8
20260506121443 15 159 19.3 25.7 0.00 0.00 0.00 81 1012.8
20260506120940 15 183 17.7 33.8 0.00 0.00 0.00 80 1012.9
20260506120438 15 127 4.8 17.7 0.00 0.00 0.00 81 1012.9
20260506115935 15 197 16.1 27.4 0.00 0.00 0.00 82 1013.0
20260506115433 15 174 24.1 30.6 0.00 0.00 0.00 82 1012.9
20260506114931 15 151 6.4 9.7 0.00 0.00 0.00 83 1013.3
20260506114428 15 273 12.9 22.5 0.00 0.00 0.00 85 1013.3
20260506113927 14 40 1.6 20.9 0.00 0.00 0.00 86 1013.2
20260506113424 14 183 16.1 20.9 0.00 0.00 0.00 87 1013.4
20260506112920 14 177 6.4 16.1 0.00 0.00 0.00 86 1013.4
20260506112418 14 149 9.7 17.7 0.00 0.00 0.00 86 1013.3
20260506111915 14 271 8.0 17.7 0.00 0.00 0.00 86 1013.1
20260506111413 14 185 12.9 20.9 0.00 0.00 0.00 87 1013.6
20260506110910 14 257 9.7 24.1 0.00 0.00 0.00 87 1013.3
20260506110408 14 142 16.1 22.5 0.00 0.00 0.00 87 1013.3
20260506105904 14 193 3.2 6.4 0.00 0.00 0.00 87 1013.1
20260506105400 13 230 4.8 33.8 0.00 0.00 0.00 88 1012.9
20260506104858 13 354 4.8 16.1 0.00 0.00 0.00 88 1013.2
20260506104356 13 28 3.2 20.9 0.00 0.00 0.00 88 1013.1
20260506103853 13 113 6.4 11.3 0.00 0.00 0.00 88 1013.2
20260506103351 13 175 6.4 16.1 0.00 0.00 0.00 88 1013.3
20260506102848 13 144 8.0 12.9 0.00 0.00 0.00 88 1013.2
20260506102346 13 63 4.8 20.9 0.00 0.00 0.00 88 1013.1
20260506101843 13 37 9.7 22.5 0.00 0.00 0.00 88 1013.2
20260506101338 13 245 9.7 17.7 0.00 0.00 0.00 88 1013.1
20260506100837 13 155 9.7 12.9 0.00 0.00 0.00 88 1013.2
20260506100335 13 73 3.2 9.7 0.00 0.00 0.00 88 1013.2
20260506095833 13 87 3.2 11.3 0.00 0.00 0.00 88 1013.1
20260506095330 13 118 8.0 22.5 0.00 0.00 0.00 88 1013.0
20260506094826 13 142 3.2 17.7 0.00 0.00 0.00 88 1013.0
20260506094325 13 224 6.4 11.3 0.00 0.00 0.00 88 1013.0
20260506093823 13 93 4.8 11.3 0.00 0.00 0.00 87 1013.2
20260506093320 13 158 17.7 20.9 0.00 0.00 0.00 87 1013.0
20260506092818 13 269 14.5 20.9 0.00 0.00 0.00 87 1012.9
20260506092315 13 197 9.7 14.5 0.00 0.00 0.00 87 1013.1
20260506091812 13 65 3.2 12.9 0.00 0.00 0.00 87 1013.1
20260506091310 13 44 3.2 14.5 0.00 0.00 0.00 87 1013.1
20260506090807 13 308 6.4 16.1 0.00 0.00 0.00 87 1013.4
20260506090304 13 158 11.3 24.1 0.00 0.00 0.00 87 1013.2
20260506085801 13 179 11.3 17.7 0.00 0.00 0.00 87 1013.3
20260506085257 13 141 14.5 20.9 0.00 0.00 0.00 86 1013.2
20260506084754 13 154 6.4 12.9 0.00 0.00 0.00 86 1013.3
20260506084250 13 181 11.3 20.9 0.00 0.00 0.00 86 1013.3
20260506083747 13 181 12.9 17.7 0.00 0.00 0.00 86 1013.4
20260506083245 13 169 6.4 20.9 0.00 0.00 0.00 86 1013.4
20260506082742 13 119 9.7 14.5 0.00 0.00 0.00 85 1013.3
20260506082237 13 206 19.3 24.1 0.00 0.00 0.00 85 1013.5
20260506081736 13 192 8.0 20.9 0.00 0.00 0.00 85 1013.3
20260506081233 13 261 11.3 22.5 0.00 0.00 0.00 85 1013.4
20260506080731 13 260 8.0 25.7 0.00 0.00 0.00 84 1013.4
20260506080227 14 130 9.7 14.5 0.00 0.00 0.00 84 1013.5
20260506073211 14 333 3.2 20.9 0.00 0.00 0.00 83 1013.4
20260506072708 14 188 14.5 20.9 0.00 0.00 0.00 83 1013.3
20260506072205 14 153 17.7 22.5 0.00 0.00 0.00 83 1013.3
20260506071702 14 159 9.7 25.7 0.00 0.00 0.00 83 1013.3
20260506071200 14 143 22.5 29.0 0.00 0.00 0.00 82 1013.1
20260506070657 14 327 12.9 24.1 0.00 0.00 0.00 83 1013.3
20260506070154 14 358 8.0 24.1 0.00 0.00 0.00 82 1013.1
20260506062131 15 182 11.3 20.9 0.00 0.00 0.00 80 1013.2
20260506061627 15 192 12.9 30.6 0.00 0.00 0.00 80 1013.1
20260506061125 15 46 22.5 33.8 0.00 0.00 0.00 80 1013.2
20260506060623 15 182 9.7 14.5 0.00 0.00 0.00 79 1013.2
20260506060120 15 139 17.7 24.1 0.00 0.00 0.00 79 1013.4
20260506051052 15 197 14.5 24.1 0.00 0.00 0.00 75 1013.6
20260506050550 15 171 12.9 25.7 0.00 0.00 0.00 74 1013.4
20260506045040 15 151 27.4 43.5 0.00 0.00 0.00 73 1013.7
20260506044538 15 145 11.3 16.1 0.00 0.00 0.00 73 1013.7
20260506044035 16 301 6.4 16.1 0.00 0.00 0.00 72 1013.7
20260506043532 16 284 8.0 17.7 0.00 0.00 0.00 72 1013.8
20260506043030 16 150 14.5 20.9 0.00 0.00 0.00 71 1013.9
20260506042529 16 169 11.3 41.8 0.00 0.00 0.00 71 1013.9
20260506042027 16 225 11.3 14.5 0.00 0.00 0.00 71 1013.6
20260506041525 16 179 16.1 27.4 0.00 0.00 0.00 71 1013.8
20260506041021 16 248 8.0 17.7 0.00 0.00 0.00 70 1013.6
20260506040519 16 290 16.1 25.7 0.00 0.00 0.00 70 1013.5
20260506040015 16 179 9.7 33.8 0.00 0.00 0.00 70 1013.6
20260506035512 16 171 14.5 20.9 0.00 0.00 0.00 69 1013.9
20260506035008 16 208 11.3 16.1 0.00 0.00 0.00 69 1013.9
20260506034506 16 124 17.7 24.1 0.00 0.00 0.00 68 1013.8
20260506034003 16 120 11.3 24.1 0.00 0.00 0.00 68 1013.4
20260506033500 16 162 12.9 24.1 0.00 0.00 0.00 68 1013.5
20260506032957 16 71 14.5 24.1 0.00 0.00 0.00 68 1013.5
20260506032455 16 208 11.3 17.7 0.00 0.00 0.00 68 1013.8
20260506031950 16 262 17.7 30.6 0.00 0.00 0.00 68 1013.4
20260506031448 16 197 14.5 22.5 0.00 0.00 0.00 68 1013.3
20260506030946 16 231 24.1 30.6 0.00 0.00 0.00 68 1013.5
20260506030444 16 234 9.7 24.1 0.00 0.00 0.00 68 1013.4
20260506025940 16 174 11.3 29.0 0.00 0.00 0.00 68 1013.6
20260506025437 16 344 9.7 20.9 0.00 0.00 0.00 68 1013.4
20260506024934 16 345 6.4 27.4 0.00 0.00 0.00 68 1013.4
20260506024431 16 255 19.3 24.1 0.00 0.00 0.00 68 1013.4
20260506023926 16 186 8.0 14.5 0.00 0.00 0.00 68 1013.6
20260506023424 16 175 9.7 22.5 0.00 0.00 0.00 68 1013.4
20260506022920 15 34 8.0 16.1 0.00 0.00 0.00 68 1013.6
20260506022418 15 194 11.3 16.1 0.00 0.00 0.00 69 1013.4
20260506021916 15 12 3.2 30.6 0.00 0.00 0.00 69 1013.5
20260506021413 15 284 17.7 24.1 0.00 0.00 0.00 69 1013.2
20260506020909 15 196 12.9 22.5 0.00 0.00 0.00 69 1013.6
20260506020408 15 337 8.0 17.7 0.00 0.00 0.00 69 1013.4
20260506015904 15 163 8.0 22.5 0.00 0.00 0.00 69 1013.3
20260506015402 15 104 9.7 24.1 0.00 0.00 0.00 69 1013.3
20260506014859 15 166 11.3 17.7 0.00 0.00 0.00 69 1013.2
20260506014355 15 196 12.9 24.1 0.00 0.00 0.00 69 1013.4
20260506013852 15 211 12.9 16.1 0.00 0.00 0.00 69 1013.3
20260506013350 15 202 9.7 24.1 0.00 0.00 0.00 69 1013.2
20260506012846 15 160 11.3 16.1 0.00 0.00 0.00 69 1013.3
20260506012343 15 190 14.5 27.4 0.00 0.00 0.00 69 1013.4
20260506011840 15 175 12.9 24.1 0.00 0.00 0.00 69 1013.2
20260506011337 15 136 11.3 24.1 0.00 0.00 0.00 69 1013.3
20260506010834 15 309 9.7 17.7 0.00 0.00 0.00 69 1013.3
20260506010332 15 216 3.2 24.1 0.00 0.00 0.00 68 1012.8
20260506005829 15 249 11.3 29.0 0.00 0.00 0.00 68 1013.0
20260506005326 15 97 3.2 12.9 0.00 0.00 0.00 68 1013.0
20260506004821 15 287 9.7 29.0 0.00 0.00 0.00 67 1013.0
20260506004319 15 192 19.3 27.4 0.00 0.00 0.00 68 1012.9
20260506003815 15 231 8.0 24.1 0.00 0.00 0.00 67 1012.9
20260506003312 15 10 6.4 16.1 0.00 0.00 0.00 67 1012.5
20260506002808 16 192 14.5 22.5 0.00 0.00 0.00 66 1012.5
20260506002306 16 306 9.7 12.9 0.00 0.00 0.00 66 1012.4
20260506001800 16 196 20.9 25.7 0.00 0.00 0.00 66 1012.2
20260506001258 16 127 11.3 24.1 0.00 0.00 0.00 65 1012.4
20260506000754 16 37 11.3 20.9 0.00 0.00 0.00 66 1012.4
20260506000254 16 253 14.5 24.1 0.00 0.00 0.00 65 1012.3
20260505235749 16 143 14.5 25.7 0.00 0.00 0.00 65 1012.2
20260505235247 16 316 11.3 16.1 0.00 0.00 0.00 65 1011.9
20260505234743 16 279 6.4 17.7 0.00 0.00 0.00 64 1011.9
20260505234241 16 209 17.7 27.4 0.00 0.00 0.00 63 1011.8
20260505233737 17 147 8.0 24.1 0.00 0.00 0.00 63 1011.8
20260505233236 17 212 11.3 17.7 0.00 0.00 0.00 62 1011.7
20260505232732 17 193 11.3 33.8 0.00 0.00 0.00 62 1011.6
20260505232230 17 190 6.4 25.7 0.00 0.00 0.00 61 1011.5
20260505231726 17 38 3.2 22.5 0.00 0.00 0.00 61 1011.8
20260505231225 17 156 3.2 24.1 0.00 0.00 0.00 60 1011.4
20260505230723 18 188 16.1 24.1 0.00 0.00 0.00 59 1011.2
20260505230219 18 190 8.0 24.1 0.00 0.00 0.00 59 1011.0
20260505225716 18 226 24.1 29.0 0.00 0.00 0.00 58 1011.2
20260505225213 18 179 17.7 24.1 0.00 0.00 0.00 58 1011.0
20260505224708 18 183 12.9 25.7 0.00 0.00 0.00 57 1010.6
20260505224206 19 199 9.7 22.5 0.00 0.00 0.00 57 1010.8
20260505223703 19 197 16.1 25.7 0.00 0.00 0.00 56 1011.0
20260505223159 19 142 9.7 25.7 0.00 0.00 0.00 55 1011.1
20260505222655 20 255 17.7 29.0 0.00 0.00 0.00 53 1010.9